Regional Weather Roundup
Issued by NWS Columbia, SC

Home | Current Version | Previous Version | Text Only | Print | Product List | Glossary On
Versions: 1 2 3 4 5 6 7 8 9 10 11 12 13 14 15 16 17 18 19 20 21 22 23 24 25 26 27 28 29 30 31 32 33 34 35 36 37 38 39 40 41 42 43 44 45 46 47 48 49 50
000
ASUS42 KCAE 031810
RWRCAE
REGIONAL WEATHER ROUNDUP
NATIONAL WEATHER SERVICE COLUMBIA SC
100 PM EST TUE MAR 03 2015

NOTE: "FAIR" INDICATES FEW OR NO CLOUDS BELOW 12,000 FEET WITH NO
SIGNIFICANT WEATHER AND/OR OBSTRUCTIONS TO VISIBILITY.

NOT ALL STATIONS ARE QUALITY CONTROLLED BY THE NATIONAL
WEATHER SERVICE. USE DATA WITH CAUTION...ESPECIALLY
DEWPOINT OBSERVATIONS.

SCZ001>056-GAZ040-063>065-077-031900-
...UPSTATE SOUTH CAROLINA...

CITY           SKY/WX    TMP DP  RH WIND       PRES   REMARKS
ANDERSON       CLOUDY    45  42  89 NE6       30.25F FOG
6HR MIN TEMP:  43; 6HR MAX TEMP:  48; 6HR PCP:  0.01;

LIBERTY        CLOUDY    44  44  98 MISG      30.25F FOG
6HR MIN TEMP:  35; 6HR MAX TEMP:  76;

SPARTANBURG    CLOUDY    46  39  76 NE8       30.25F
CLEMSON        CLOUDY    46  41  82 NE5       30.26F HAZE
6HR MIN TEMP:  46; 6HR MAX TEMP:  49; 6HR PCP: TRACE;

GREENVILLE     CLOUDY    44  38  79 E7        30.26F
6HR MIN TEMP:  42; 6HR MAX TEMP:  47; 6HR PCP:  0.01;

GREENWOOD      LGT RAIN  45  43  93 NE8       30.26F FOG
6HR MIN TEMP:  44; 6HR MAX TEMP:  50; 6HR PCP:  0.06;

GREER          CLOUDY    44  39  82 NE8       30.25F
6HR MIN TEMP:  41; 6HR MAX TEMP:  46; 6HR PCP:  0.02;

ROCK HILL      LGT RAIN  40  38  93 E5        30.29F FOG
6HR MIN TEMP:  39; 6HR MAX TEMP:  45; 6HR PCP:  0.06;

CHESTER        DRIZZLE   43  43 100 E5        30.28F
LAURENS        CLOUDY    43  43 100 NE7       30.27F FOG


...CENTRAL SOUTH CAROLINA...

CITY           SKY/WX    TMP DP  RH WIND       PRES   REMARKS
COLUMBIA APT   DRIZZLE   46  46 100 NE8       30.27F FOG
6HR MIN TEMP:  46; 6HR MAX TEMP:  54; 6HR PCP:  0.02;

COLUMBIA OWENS CLOUDY    45  42  89 NE5       30.28F FOG
6HR MIN TEMP:  45; 6HR MAX TEMP:  53; 6HR PCP:  0.01;

FLORENCE       CLOUDY    43  35  73 NE6       30.29F
6HR MIN TEMP:  42; 6HR MAX TEMP:  45; 6HR PCP: TRACE;

MCENTIRE ANGB  CLOUDY    45  43  94 NE6       30.27F FOG
6HR MIN TEMP:  45; 6HR MAX TEMP:  51; 6HR PCP:  0.01;

ORANGEBURG     CLOUDY    50  47  89 E8        30.24F
6HR MIN TEMP:  49; 6HR MAX TEMP:  53; 6HR PCP:  0.02;

SUMTER SHAW    DRIZZLE   43  38  85 NE8       30.26F FOG
6HR MIN TEMP:  43; 6HR MAX TEMP:  49; 6HR PCP: TRACE;

NEWBERRY       RAIN      45  45 100 NE8       30.29F
AIKEN          DRIZZLE   52  52 100 E6        30.28S
BARNWELL       CLOUDY    55  54  94 E9        30.24F FOG
MANNING        DRIZZLE  N/A N/A N/A N3        30.27F
CAMDEN         LGT RAIN  41  39  93 NE6       30.29F
LANCASTER      RAIN      39  39 100 NE5       30.30F VSB 1
WINNSBORO      RAIN      41  41 100 NE8       30.27F


...EASTERN AND COASTAL SOUTH CAROLINA...

CITY           SKY/WX    TMP DP  RH WIND       PRES   REMARKS
MYRTLE BEACH     N/A     52  39  62 NE12      30.29
N MYRTLE BCH   CLOUDY    54  44  69 E9        30.26F
6HR MIN TEMP:  45; 6HR MAX TEMP:  54; 6HR PCP: TRACE;

CONWAY         CLOUDY    50  39  66 CALM      30.28F
MARION         CLOUDY    45  32  61 CALM      30.30F
HARTSVILLE     CLOUDY    37  37 100 N5        30.31F WCI  34
FLORENCE       CLOUDY    43  35  73 NE6       30.29F
6HR MIN TEMP:  42; 6HR MAX TEMP:  45; 6HR PCP: TRACE;

CHARLESTON APT CLOUDY    61  51  70 NE6       30.23F
6HR MIN TEMP:  54; 6HR MAX TEMP:  62;

MOUNT PLEASANT CLOUDY    59  54  82 CALM      30.23F HAZE
WALTERBORO     CLOUDY    61  55  82 NE3       30.24F
BEAUFORT       CLOUDY    65  58  78 CALM      30.22F
6HR MIN TEMP:  55; 6HR MAX TEMP:  66; 6HR PCP:  0.02;



...EASTERN GEORGIA...

CITY           SKY/WX    TMP DP  RH WIND       PRES   REMARKS
AUGUSTA BUSH F LGT RAIN  57  55  93 NE6       30.23F FOG
6HR MIN TEMP:  56; 6HR MAX TEMP:  57; 6HR PCP: TRACE;

AUGUSTA DANIEL LGT RAIN  57  55  93 NE7       30.23F FOG
6HR MIN TEMP:  57; 6HR MAX TEMP:  58; 6HR PCP:  0.02;

THOMSON        CLOUDY    55  55 100 N6        30.27F
6HR MIN TEMP:  55; 6HR MAX TEMP:  59;

WASHINGTON     CLOUDY    48 N/A N/A NE3       30.24F FOG
CLAXTON        CLOUDY    73  64  73 S5        30.19F
SYLVANIA       CLOUDY    65  63  91 E3        30.22F
6HR MIN TEMP:  56; 6HR MAX TEMP:  65;

STATESBORO     CLOUDY    70  68  92 CALM      30.20F
6HR MIN TEMP:  57; 6HR MAX TEMP:  70;

SAVANNAH       PTSUNNY   72  59  63 CALM      30.20F
6HR MIN TEMP:  56; 6HR MAX TEMP:  72;



...SOUTHERN NORTH CAROLINA...

CITY           SKY/WX    TMP DP  RH WIND       PRES   REMARKS
CHARLOTTE      LGT RAIN  41  36  82 E6        30.28F
6HR MIN TEMP:  40; 6HR MAX TEMP:  45; 6HR PCP:  0.01;

MONROE         LGT RAIN  39  36  89 NE6       30.28F FOG     WCI  35
6HR MIN TEMP:  39; 6HR MAX TEMP:  44; 6HR PCP:  0.04;

WADESBORO      DRIZZLE   38  36  91 CALM      30.31F
6HR MIN TEMP:  38; 6HR MAX TEMP:  43;

ROCKINGHAM     RAIN      37  35  96 N5        30.31F WCI  33
6HR MIN TEMP:  37; 6HR MAX TEMP:  41; 6HR PCP:  0.03;

RUTHERFORDTON  CLOUDY    46  33  59 N3        30.27F
6HR MIN TEMP:  44; 6HR MAX TEMP:  46;

ASHEVILLE      CLOUDY    46  38  73 SE9       30.21F
6HR MIN TEMP:  41; 6HR MAX TEMP:  47;


$$



USA.gov is the U.S. government's official web portal to all federal, state and local government web resources and services.